This is the latest recevied weather packets stored in our database for station/object KJ5IIV. If no packets are shown the sender has not sent any weather packets the latest 10 day(s).
| Time | Temp. | Humidity | Pressure | Rain* | Wind** | Luminosity | Snow |
|---|---|---|---|---|---|---|---|
| 1777945206 | 21.67° C | 66% | 1007.6 hPa | 0 mm | - | 0 W/m² | - |
| 1777944903 | 21.67° C | 66% | 1007.6 hPa | 0 mm | - | 0 W/m² | - |
| 1777944600 | 22.22° C | 65% | 1007.7 hPa | 0 mm | - | 0 W/m² | - |
| 1777944298 | 22.22° C | 64% | 1007.5 hPa | 0 mm | - | 0 W/m² | - |
| 1777943995 | 22.22° C | 63% | 1007.6 hPa | 0 mm | - | 0 W/m² | - |
| 1777943690 | 22.78° C | 63% | 1007.5 hPa | 0 mm | - | 0 W/m² | - |
| 1777943388 | 22.78° C | 63% | 1007.4 hPa | 0 mm | - | 1 W/m² | - |
| 1777943083 | 22.78° C | 62% | 1007.4 hPa | 0 mm | - | 2 W/m² | - |
| 1777942779 | 22.78° C | 62% | 1007.2 hPa | 0 mm | - | 4 W/m² | - |
| 1777942476 | 23.33° C | 61% | 1007.5 hPa | 0 mm | - | 6 W/m² | - |
| 1777942174 | 23.33° C | 59% | 1007.4 hPa | 0 mm | - | 10 W/m² | - |
| 1777941871 | 23.89° C | 60% | 1007.4 hPa | 0 mm | - | 15 W/m² | - |
| 1777941568 | 23.89° C | 59% | 1007.2 hPa | 0 mm | - | 21 W/m² | - |
| 1777941265 | 23.89° C | 58% | 1007.5 hPa | 0 mm | - | 28 W/m² | - |
| 1777940961 | 23.89° C | 58% | 1007.5 hPa | 0 mm | - | 33 W/m² | - |
| 1777940657 | 23.89° C | 59% | 1007.7 hPa | 0 mm | - | 37 W/m² | - |
| 1777940356 | 24.44° C | 57% | 1007.6 hPa | 0 mm | - | 37 W/m² | - |
| 1777940053 | 24.44° C | 55% | 1007.6 hPa | 0 mm | - | 44 W/m² | - |
| 1777939750 | 24.44° C | 56% | 1007.5 hPa | 0 mm | - | 49 W/m² | - |
| 1777939448 | 24.44° C | 56% | 1007.8 hPa | 0 mm | - | 60 W/m² | - |
| 1777939144 | 25° C | 54% | 1007.8 hPa | 0 mm | - | 59 W/m² | - |
| 1777938841 | 25° C | 54% | 1007.9 hPa | 0 mm | - | 71 W/m² | - |
| 1777938537 | 25° C | 54% | 1007.8 hPa | 0 mm | - | 65 W/m² | - |
| 1777938235 | 25° C | 54% | 1007.9 hPa | 0 mm | - | 50 W/m² | - |
| 1777937932 | 25° C | 55% | 1008 hPa | 0 mm | - | 56 W/m² | - |
* Rain latest hour (hover to see other rain measurements)
** Current wind speed in m/s (hover to see current wind gust speed)